Powrót do katalogu

STARLINK-11343

AktywnyŁącznośćVLEO
NORAD 62017·PAYLOAD·🇺🇸 United States

Wystrzelony Nov 18, 2024 z Vandenberg Space Force Base

Loading…

Następne Przeloty (najbliższe 24 godziny)

TLE

ŚwieżeSource: CelesTrak SupGP

Epoka: Sep 14, 2026, 21:25 UTC

1 62017C 24213K   26257.89284722  .00033243  00000+0  27367-3 0  2571
2 62017  53.1573 188.6709 0001156 102.9308 132.4419 15.69707232    14

Śledź STARLINK-11343 w czasie rzeczywistym z AllMySat

Download on the App Store